Showing default

PRAETORIAN SDA_601, 65585

Orbit data source: Space-Track

PRAETORIAN SDA_601, 65585 is a payload satellite owned by SDA (US) in LEO that was launched on Wed, 10 Sep 2025 UTC via an FALCON 9 launch vehicle from the Air Force Western Test Range (AFWTR). Payload-class satellites include a variety of spacecraft equipped with specific instruments for various scientific and technological missions. These include communications satellites like Starlink; space stations such as the ISS; scientific satellites like the Hubble; Earth observation satellites from companies like Planet Labs, Umbra, and HawkEye 360; GPS; miniature CubeSats for education and research; and military/defense satellites.

Loading next visibility...
Identifier
65585, 2025-203X
Orbit
LEO
Country
Flag of USUS
Related business
Manufacturer
York Space Sys
Mission
Operational Defense Communications
Bus & Motor
S-CLASS, Unknown motor
Mass
~300 kg wet, ~300 kg dry
Launch date (UTC)
2025-09-10 (9 months ago)
Launch vehicle
FALCON 9
Launch site
Air Force Western Test Range (AFWTR)
Object type
Payload
Rocket body
Debris
Shape & HBR
Box + 4 Pan, 1.6 m
Radar Cross Section
1.244 m², Large (>1 m²)

Expand to show TLE details & history
Last TLE update: 21 hours ago

TLE from 21 hours ago
0 PRAETORIAN SDA_601
1 65585U 25203X   26170.95230967  .00000504  00000-0  44903-3 0  9990
2 65585  81.3041   8.4633 0005507 187.7583 172.3489 13.83168348 39065
Epoch: 2026-06-19T22:51Z
TLE epoch observation values (Epoch: 2026-06-19T22:51:19.555Z)
Latitude
-0.00001°
Longitude
117.45791°
Altitude
959.537 km
Speed
7.37 km/s
True Right ascension
00h 33m 51s
True Declination
0° 00' 00"
Sunlit
Object was in daylight at epoch
Visualization orbit readout
Latitude
Unknown
Longitude
Unknown
Altitude
Unknown
Speed
Unknown
Apparent Right ascension
Unknown
Apparent Declination
Unknown
Sunlit
N/A
Visualization observer readout
Local Sidereal Time
07:12:33
Azimuth
Unknown
Elevation
Unknown
Doppler factor
Unknown
Orbital elements
Apogee altitude
953.913 km
Perigee altitude
945.842 km
Semi-major axis
7,328.015 km
Eccentricity
0.00055
Inclination
81.3041°
RAAN
8.4633°
Arg. of periapsis
187.7583°
True anomaly
172.3573°
Mean anomaly
172.3489°
Eccentric anomaly
172.3531°
Mean motion
3.4599 °/min
Orbital period
104.05 mins
BSTAR
0.00044903
Loading maneuver chart data...
Computing Atmospheric mass density...
Loading historical data...
Loading historical data...
Loading historical data...
Loading historical data...
Loading historical data...
Loading historical data...
Loading historical data...

Documentation

Showing up to 5 results
|